Albany, NY

8:50 AM EST on December 06, 2019 (GMT -0500)
Albany International

Weather History for KALB - November, 2019

Change the Weather History Date:

Wednesday, November 13, 2019

  Actual Average Record
Temperature  
Mean Temperature 20 °F 41 °F  
Max Temperature 26 °F 49 °F 69 °F (1964)
Min Temperature 14 °F 32 °F 13 °F (1981)
Degree Days  
Heating Degree Days 45 24  
Month to date heating degree days 357 292  
Since 1 July heating degree days 789 937  
Cooling Degree Days 0 0  
Month to date cooling degree days 0 0  
Year to date cooling degree days 774 598  
Moisture  
Dew Point 6 °F    
Average Humidity 54    
Maximum Humidity 68    
Minimum Humidity 45    
Precipitation  
Precipitation 0.00 in 0.10 in 0.94 in (1974)
Month to date precipitation 0.65 1.42  
Year to date precipitation 39.34 34.55  
Snow  
Snow 0.00 in 0.10 in 6.00 in (1886)
Month to date snowfall 0.6 0.6  
Since 1 July snowfall 0.6 0.9  
Since 1 September snowfall 0.6 0.9  
Snow Depth 1.0 in    
Sea Level Pressure  
Sea Level Pressure 30.34 in    
Wind  
Wind Speed 10 mph ()    
Max Wind Speed 20 mph    
Max Gust Speed 28 mph    
Visibility 10.0 miles    
Events      
T = Trace of Precipitation, MM = Missing Value Source: Averaged Metar Reports

Daily Weather History Graph

Daily Weather History Graph

Search for Another Location

Airport or City:

Astronomy

Nov. 13, 2019 Rise Set
Actual Time 6:44 AM EST 4:34 PM EST
Civil Twilight 6:13 AM EST 5:04 PM EST
Nautical Twilight 5:39 AM EST 5:38 PM EST
Astronomical Twilight 5:06 AM EST 6:11 PM EST
Moon 5:35 PM EST (11/13) 7:34 AM EST (11/13)
Length of Visible Light 10h 50m
Length of Day
9h 50m
Full, 99% of the Moon is Illuminated
Nov 13
Full
Nov 19
Last Quarter
Nov 26
New
Dec 4
First Quarter
Dec 12
Full

Hourly Weather History & Observations

Time (EST) Temp. Windchill Dew Point Humidity Pressure Visibility Wind Dir Wind Speed Gust Speed Precip Events Conditions
12:51 AM 18.0 °F 4.2 °F 3.0 °F 52% 30.15 in 10.0 mi WNW 13.8 mph - N/A   Clear
1:51 AM 18.0 °F 3.1 °F 3.0 °F 52% 30.16 in 10.0 mi WNW 16.1 mph - N/A   Clear
2:51 AM 17.1 °F 2.0 °F 3.0 °F 54% 30.17 in 10.0 mi WNW 16.1 mph - N/A   Clear
3:51 AM 16.0 °F 3.6 °F 3.0 °F 57% 30.20 in 10.0 mi WNW 10.4 mph 20.7 mph N/A   Partly Cloudy
4:51 AM 15.1 °F 3.3 °F 1.9 °F 56% 30.23 in 10.0 mi WNW 9.2 mph - N/A   Partly Cloudy
5:51 AM 15.1 °F 1.1 °F 1.9 °F 56% 30.25 in 10.0 mi WNW 12.7 mph - N/A   Partly Cloudy
6:51 AM 14.0 °F -0.2 °F 1.9 °F 59% 30.27 in 10.0 mi West 12.7 mph - N/A   Partly Cloudy
7:51 AM 15.1 °F 1.1 °F 1.9 °F 56% 30.31 in 10.0 mi WNW 12.7 mph 21.9 mph N/A   Partly Cloudy
8:51 AM 17.1 °F 3.0 °F 1.0 °F 50% 30.34 in 10.0 mi WNW 13.8 mph - N/A   Partly Cloudy
9:51 AM 19.0 °F 4.0 °F 1.9 °F 47% 30.36 in 10.0 mi WNW 17.3 mph 25.3 mph N/A   Partly Cloudy
10:51 AM 21.0 °F 7.6 °F 3.9 °F 48% 30.37 in 10.0 mi West 15.0 mph - N/A   Partly Cloudy
11:51 AM 23.0 °F 12.4 °F 6.1 °F 48% 30.35 in 10.0 mi WNW 10.4 mph - N/A   Partly Cloudy
12:51 PM 25.0 °F 15.5 °F 7.0 °F 46% 30.37 in 10.0 mi West 9.2 mph - N/A   Partly Cloudy
1:51 PM 25.0 °F 13.1 °F 8.1 °F 49% 30.37 in 10.0 mi West 13.8 mph - N/A   Partly Cloudy
2:51 PM 25.0 °F 13.6 °F 8.1 °F 49% 30.40 in 10.0 mi West 12.7 mph - N/A   Partly Cloudy
3:51 PM 25.0 °F 14.8 °F 7.0 °F 46% 30.40 in 10.0 mi West 10.4 mph - N/A   Scattered Clouds
4:51 PM 21.9 °F 9.2 °F 7.0 °F 53% 30.41 in 10.0 mi West 13.8 mph - N/A   Partly Cloudy
5:51 PM 21.9 °F 11.0 °F 8.1 °F 55% 30.42 in 10.0 mi WNW 10.4 mph - N/A   Scattered Clouds
6:51 PM 21.9 °F 14.5 °F 7.0 °F 53% 30.43 in 10.0 mi WNW 5.8 mph - N/A   Mostly Cloudy
7:51 PM 21.9 °F - 7.0 °F 53% 30.43 in 10.0 mi Calm Calm - N/A   Mostly Cloudy
8:51 PM 21.0 °F 16.2 °F 9.0 °F 60% 30.45 in 10.0 mi South 3.5 mph - N/A   Overcast
9:51 PM 21.0 °F - 9.0 °F 60% 30.46 in 10.0 mi Calm Calm - N/A   Overcast
10:51 PM 19.9 °F - 10.9 °F 68% 30.47 in 10.0 mi Calm Calm - N/A   Overcast
11:51 PM 21.0 °F 16.2 °F 12.0 °F 68% 30.46 in 10.0 mi SSW 3.5 mph - N/A   Overcast